Location: Valdosta
(30.8330°N, 83.2790°W)
Time: 20:39:37
(UTC-04:00)

Amateur Radio Satellites - All Passes

Search period start: 19 April 2014 20:09
Search period end: 20 April 2014 20:09
Location: Valdosta, 30.8330°N, 83.2790°W

Satellite Date Start Highest point End Downlink Frequencies (MHz)
Time Altitude Azimuth
SO-67 19 Apr 20:14:15 20:17:44 86° 259° (W) 20:21:14 435.3500 MHz FM
JAS-2 19 Apr 20:22:34 20:28:36 58° 258° (WSW) 20:34:01 435.800 - 435.900 CW/SSB, 435.910 FM
Saudisat 1A 19 Apr 21:02:38 21:06:58 56° 61° (ENE) 21:11:14 436.775 MHz
HO-68 19 Apr 21:04:01 21:10:06 32° 66° (ENE) 21:16:12 435.675 MHz FM
STRAND 1 19 Apr 21:25:29 21:28:49 18° 293° (WNW) 21:32:09 ?
Oscar 11 19 Apr 22:07:16 22:11:03 31° 73° (ENE) 22:14:52 145.825 FM, Beacon 2401.500 USB
MaSat-1 19 Apr 22:11:23 22:14:32 56° 292° (WNW) 22:17:16 437.345 MHz
AO-40 19 Apr 22:16:37 22:17:54 11° 182° (S) 22:19:10 Beacon 2401.320
ISS 19 Apr 22:19:35 22:21:31 14° 34° (NE) 22:23:27 145.800 FM
HO-68 19 Apr 22:50:59 22:57:33 40° 260° (W) 23:04:10 435.675 MHz FM
FUNcube-1 19 Apr 23:33:55 23:38:10 77° 258° (WSW) 23:42:21 145.950 - 145.970 MHz USB
Oscar 11 19 Apr 23:44:36 23:47:15 16° 265° (W) 23:49:55 145.825 FM, Beacon 2401.500 USB
ISS 19 Apr 23:55:12 23:58:26 46° 229° (SW) 00:01:39 145.800 FM
Sapphire 20 Apr 00:20:02 00:24:39 30° 107° (ESE) 00:29:18 437.095 MHz 1200 baud AX-25 AFSK
PCSat 20 Apr 01:03:57 01:09:21 88° 113° (ESE) 01:14:47 145.825 MHz
SO-50 20 Apr 01:24:24 01:28:58 53° 60° (ENE) 01:33:36 436.795 FM
Oscar 10/S400 20 Apr 01:39:39 01:54:58 25° 139° (SE) 02:17:24 145.825 - 145.975 CW/USB, Beacon 145.810 USB
Sapphire 20 Apr 02:03:20 02:07:58 29° 302° (WNW) 02:12:37 437.095 MHz 1200 baud AX-25 AFSK
KITSAT 1 20 Apr 02:21:00 02:27:56 32° 106° (ESE) 02:34:53 435.175 FM
ITAMSAT 1 20 Apr 02:25:55 02:28:03 13° 93° (E) 02:30:11 435.822 SSB
Oscar 19 20 Apr 02:27:40 02:32:10 29° 97° (E) 02:36:38 437.125 CW, 437.150 USB
Oscar 16 20 Apr 02:35:45 02:40:35 39° 99° (E) 02:45:24 437.025 USB, Beacon 2401.1428
OPAL 20 Apr 02:38:55 02:42:50 24° 67° (ENE) 02:46:48 ?
PCSat 20 Apr 02:52:12 02:53:26 11° 310° (NW) 02:54:40 145.825 MHz
SO-50 20 Apr 03:07:10 03:09:04 12° 252° (WSW) 03:10:59 436.795 FM
Uribyol 2 20 Apr 03:11:46 03:16:42 44° 100° (E) 03:21:38 436.500 FM
UOSAT-12 20 Apr 03:44:49 03:49:33 78° 62° (ENE) 03:54:12 437.025 FM, 437.400 FM
Gurwin Techsat 1B 20 Apr 03:47:57 03:52:26 28° 97° (E) 03:56:54 435.225 FM
AO-27 20 Apr 03:52:06 03:57:15 72° 285° (WNW) 04:02:24 436.795 MHz FM
ITAMSAT 1 20 Apr 04:02:45 04:07:48 56° 286° (WNW) 04:12:51 435.822 SSB
AO-Echo 20 Apr 04:04:31 04:09:12 64° 285° (WNW) 04:13:50 ?
Oscar 19 20 Apr 04:07:06 04:11:20 26° 290° (WNW) 04:15:32 437.125 CW, 437.150 USB
KITSAT 1 20 Apr 04:15:19 04:23:00 46° 302° (WNW) 04:30:45 435.175 FM
Oscar 16 20 Apr 04:15:57 04:19:36 20° 292° (WNW) 04:23:16 437.025 USB, Beacon 2401.1428
OPAL 20 Apr 04:17:07 04:21:30 31° 260° (W) 04:25:57 ?
Uosat F 20 Apr 04:25:24 04:27:49 13° 94° (E) 04:30:13 435.120 FM
TMSAT-1 20 Apr 04:35:12 04:40:26 60° 101° (E) 04:45:38 436.925 FM
Uribyol 2 20 Apr 04:52:29 04:55:46 17° 293° (WNW) 04:59:04 436.500 FM
AO-7 20 Apr 04:56:29 05:03:04 26° 97° (E) 05:09:37 29.400 - 29.500 MHz
JAS-1B 20 Apr 04:56:51 05:02:13 42° 100° (E) 05:07:59 435.800 - 435.900 CW/SSB
AO-40 20 Apr 05:14:09 11:05:38 48° 180° (S) 17:12:31 Beacon 2401.320
Gurwin Techsat 1B 20 Apr 05:27:49 05:32:16 28° 290° (WNW) 05:36:42 435.225 FM
RS-15 20 Apr 05:32:31 05:39:34 19° 102° (ESE) 05:46:26 29.354 - 29.394 USB, Beacon 29.352 USB
Uosat F 20 Apr 06:01:58 06:06:47 50° 287° (WNW) 06:11:35 435.120 FM
TMSAT-1 20 Apr 06:17:20 06:19:47 13° 294° (WNW) 06:22:13 436.925 FM
Hamsat 20 Apr 06:47:25 06:50:07 16° 95° (E) 06:52:49 145.90 MHz
AO-7 20 Apr 06:48:00 06:56:04 57° 291° (WNW) 07:04:08 29.400 - 29.500 MHz
JAS-1B 20 Apr 06:48:43 06:52:37 19° 293° (WNW) 06:56:41 435.800 - 435.900 CW/SSB
STRAND 1 20 Apr 06:55:59 07:00:34 34° 71° (ENE) 07:05:09 ?
JAS-2 20 Apr 07:37:12 07:41:25 21° 97° (E) 07:45:57 435.800 - 435.900 CW/SSB, 435.910 FM
RS-15 20 Apr 07:39:06 07:50:36 85° 297° (WNW) 08:01:42 29.354 - 29.394 USB, Beacon 29.352 USB
PANSAT 20 Apr 08:11:12 08:14:24 25° 161° (SSE) 08:17:36 not established
MaSat-1 20 Apr 08:17:13 08:20:28 75° 249° (WSW) 08:24:23 437.345 MHz
Hamsat 20 Apr 08:22:14 08:26:06 32° 287° (WNW) 08:29:59 145.90 MHz
STRAND 1 20 Apr 08:35:58 08:39:45 21° 264° (W) 08:43:33 ?
SO-67 20 Apr 09:17:27 09:20:33 30° 285° (WNW) 09:23:37 435.3500 MHz FM
JAS-2 20 Apr 09:21:21 09:26:29 40° 287° (WNW) 09:32:09 435.800 - 435.900 CW/SSB, 435.910 FM
PANSAT 20 Apr 09:50:33 09:54:20 53° 172° (S) 09:58:07 not established
RS-15 20 Apr 09:56:44 10:04:37 21° 319° (NW) 10:12:25 29.354 - 29.394 USB, Beacon 29.352 USB
PCSat 20 Apr 09:58:14 10:02:29 23° 57° (ENE) 10:06:43 145.825 MHz
HO-68 20 Apr 10:24:01 10:31:02 55° 102° (ESE) 10:38:01 435.675 MHz FM
Sapphire 20 Apr 10:55:49 11:01:14 73° 65° (ENE) 11:06:37 437.095 MHz 1200 baud AX-25 AFSK
Saudisat 1A 20 Apr 11:03:53 11:08:14 56° 115° (ESE) 11:12:37 436.775 MHz
FUNcube-1 20 Apr 11:28:47 11:32:35 30° 98° (E) 11:36:26 145.950 - 145.970 MHz USB
PANSAT 20 Apr 11:30:37 11:34:25 57° 185° (S) 11:38:13 not established
Oscar 11 20 Apr 11:35:54 11:40:11 57° 284° (WNW) 11:44:27 145.825 FM, Beacon 2401.500 USB
PCSat 20 Apr 11:40:59 11:45:57 38° 251° (WSW) 11:50:54 145.825 MHz
HO-68 20 Apr 12:12:49 12:18:12 24° 296° (WNW) 12:23:36 435.675 MHz FM
KITSAT 1 20 Apr 12:14:35 12:21:54 36° 56° (NE) 12:29:07 435.175 FM
Sapphire 20 Apr 12:43:16 12:43:57 10° 258° (WSW) 12:44:38 437.095 MHz 1200 baud AX-25 AFSK
Saudisat 1A 20 Apr 12:46:06 12:48:09 13° 309° (NW) 12:50:12 436.775 MHz
FUNcube-1 20 Apr 13:05:55 13:08:45 17° 290° (WNW) 13:11:37 145.950 - 145.970 MHz USB
PANSAT 20 Apr 13:11:01 13:14:24 29° 197° (SSW) 13:17:46 not established
Oscar 19 20 Apr 13:39:39 13:43:45 25° 69° (ENE) 13:47:52 437.125 CW, 437.150 USB
ITAMSAT 1 20 Apr 13:39:40 13:41:28 12° 65° (ENE) 13:43:16 435.822 SSB
Oscar 16 20 Apr 13:47:38 13:52:08 32° 71° (ENE) 13:56:41 437.025 USB, Beacon 2401.1428
KITSAT 1 20 Apr 14:09:48 14:17:16 43° 252° (WSW) 14:24:41 435.175 FM
Uribyol 2 20 Apr 14:24:28 14:29:13 38° 72° (ENE) 14:33:58 436.500 FM
RS-15 20 Apr 14:37:35 14:43:45 16° 35° (NE) 14:49:56 29.354 - 29.394 USB, Beacon 29.352 USB
ISS 20 Apr 14:57:02 15:00:21 76° 133° (SE) 15:03:41 145.800 FM
Oscar 10/S400 20 Apr 14:58:40 16:11:36 19° 275° (W) 18:14:14 145.825 - 145.975 CW/USB, Beacon 145.810 USB
Gurwin Techsat 1B 20 Apr 15:03:59 15:08:19 26° 70° (ENE) 15:12:39 435.225 FM
AO-27 20 Apr 15:04:42 15:09:54 83° 257° (WSW) 15:15:06 436.795 MHz FM
AO-Echo 20 Apr 15:11:17 15:16:34 89° 77° (ENE) 15:21:45 ?
ITAMSAT 1 20 Apr 15:15:12 15:20:20 66° 258° (WSW) 15:25:30 435.822 SSB
Oscar 19 20 Apr 15:18:27 15:22:54 30° 263° (W) 15:27:23 437.125 CW, 437.150 USB
Oscar 16 20 Apr 15:27:31 15:31:27 22° 264° (W) 15:35:26 437.025 USB, Beacon 2401.1428
SO-50 20 Apr 15:34:16 15:38:41 63° 115° (ESE) 15:43:08 436.795 FM
Uosat F 20 Apr 15:34:55 15:36:23 11° 65° (ENE) 15:37:50 435.120 FM
JAS-1B 20 Apr 15:36:04 15:42:37 28° 69° (ENE) 15:48:20 435.800 - 435.900 CW/SSB
TMSAT-1 20 Apr 15:50:33 15:55:41 54° 74° (ENE) 16:00:50 436.925 FM
AO-7 20 Apr 15:50:38 15:56:36 23° 60° (ENE) 16:02:33 29.400 - 29.500 MHz
Uribyol 2 20 Apr 16:05:10 16:08:44 19° 265° (W) 16:12:19 436.500 FM
OPAL 20 Apr 16:31:40 16:36:53 74° 286° (WNW) 16:42:04 ?
ISS 20 Apr 16:36:34 16:37:26 11° 328° (NNW) 16:38:18 145.800 FM
Gurwin Techsat 1B 20 Apr 16:43:31 16:48:06 30° 263° (W) 16:52:42 435.225 FM
RS-15 20 Apr 16:47:40 16:58:36 66° 60° (ENE) 17:09:51 29.354 - 29.394 USB, Beacon 29.352 USB
Uosat F 20 Apr 17:09:34 17:14:33 65° 258° (WSW) 17:19:33 435.120 FM
SO-50 20 Apr 17:18:06 17:19:38 12° 311° (NW) 17:21:10 436.795 FM
JAS-1B 20 Apr 17:24:45 17:32:56 49° 258° (WSW) 17:39:52 435.800 - 435.900 CW/SSB
TMSAT-1 20 Apr 17:33:15 17:35:50 14° 267° (W) 17:38:25 436.925 FM
AO-7 20 Apr 17:40:25 17:48:37 68° 255° (WSW) 17:56:52 29.400 - 29.500 MHz
UOSAT-12 20 Apr 17:50:43 17:55:13 86° 117° (ESE) 17:59:51 437.025 FM, 437.400 FM
RS-15 20 Apr 19:01:26 19:10:03 27° 256° (WSW) 19:18:58 29.354 - 29.394 USB, Beacon 29.352 USB
Hamsat 20 Apr 19:09:45 19:13:56 89° 78° (ENE) 19:18:10 145.90 MHz
STRAND 1 20 Apr 19:12:57 19:16:24 18° 95° (E) 19:19:51 ?
JAS-2 20 Apr 19:28:03 19:33:40 43° 74° (ENE) 19:38:46 435.800 - 435.900 CW/SSB, 435.910 FM
Saudisat 1A 20 Apr 19:38:37 19:39:38 11° 49° (NE) 19:40:38 436.775 MHz
SO-67 20 Apr 19:45:42 19:48:50 32° 75° (ENE) 19:52:00 435.3500 MHz FM
